Retour au catalogue

COSMOS 970 DEB

ActifLEO
NORAD 64998·DEBRIS·🇷🇺 Russia

Lancé Dec 21, 1977 depuis Baikonur Cosmodrome

Loading…

Prochains Passages (prochaines 24 heures)

TLE

FraisSource: Space-Track

Époque: Sep 14, 2026, 07:21 UTC

1 64998U 77121DK  26257.30691536  .00000249  00000-0  34524-3 0  9995
2 64998  65.9832 143.0310 0111058 336.8007  22.8063 13.71967569640898

Suivez COSMOS 970 DEB en temps réel avec AllMySat

Download on the App Store